Location: Kalberh�ni
(46.4610°N, 7.2453°E)
Time: 02:33:10
(UTC+00:00)

H-2A R/B - Pass Details

Date: 20 June 2021
Orbit: 574 x 597 km, 98.2° (Epoch: 25 July)

Event Time Altitude Azimuth Distance (km) Brightness Sun altitude
Rises 20:51:28 0° 23° (NNE) 2,795 7.3 -11.2°
Reaches altitude 10° 20:53:52 10° 35° (NE) 1,891 6.3 -11.4°
Maximum altitude 20:57:26 28° 96° (E) 1,084 4.5 -11.8°
Enters shadow 20:59:35 18° 143° (SE) 1,431 4.8 -12.0°
